Theta_e
316 317 320 319 318 314 315 317 315 317 317 317 317 316 315 314 314 314 313 312 312 315 313 313 314 314 316 319 317 316 317 317 320 325 324 323 322 322 322 322 323 325 324 328 328 328 328
312 314 315 318 320 317 314 314 316 315 318 316 317 316 315 314 314 313 311 313 311 313 314 312 312 313 314 314 312 314 315 316 318 320 320 322 322 320 321 320 321 322 324 326 326 326 327
307 309 310 313 317 319 317 313 316 315 317 317 316 316 315 312 313 313 312 313 314 313 313 313 312 312 315 312 311 312 313 314 315 318 320 320 321 322 322 324 321 322 325 324 324 327 327
308 308 308 309 311 315 318 316 314 315 315 317 317 315 316 314 311 312 311 313 311 314 313 313 311 313 312 310 311 310 311 312 313 315 314 314 315 321 321 321 321 324 325 328 325 326 327
306 306 306 307 309 312 315 317 315 314 314 317 317 315 315 313 311 310 313 311 311 311 312 312 311 312 311 311 312 310 312 312 312 312 313 313 313 317 316 323 324 322 325 325 326 326 328
304 303 305 307 307 308 312 314 317 315 315 316 316 316 314 313 312 311 312 311 311 312 311 312 312 314 312 312 311 311 312 312 311 311 311 314 315 315 316 322 325 324 324 322 323 327 327
303 303 303 305 307 307 309 312 312 316 314 316 316 317 315 313 312 311 312 309 308 309 312 310 310 311 309 311 311 311 312 311 312 311 312 311 316 317 315 316 317 319 321 321 320 321 325
301 302 303 303 305 306 307 309 311 312 314 314 316 316 316 313 312 310 311 309 308 309 311 310 310 311 311 311 313 312 311 312 313 314 311 313 315 313 314 314 317 318 319 319 319 319 322
299 298 301 303 303 304 306 308 310 312 316 314 315 316 316 313 312 311 311 311 311 310 311 312 311 311 311 311 313 313 311 311 313 313 313 313 312 311 314 316 317 317 318 318 319 319 320
299 299 299 301 302 303 305 306 307 310 314 314 314 316 316 313 311 311 311 311 310 311 312 311 311 313 313 313 314 312 311 312 313 313 312 312 312 312 313 315 314 317 315 318 319 322 323
299 300 298 300 301 303 304 306 308 310 309 314 314 315 315 312 308 310 310 310 311 310 301 309 311 310 313 313 314 313 312 312 314 312 312 312 313 313 313 313 314 315 314 315 317 319 320
299 298 298 300 301 303 303 303 305 308 309 311 315 315 314 309 309 309 310 310 310 306 305 313 312 312 314 314 314 312 313 313 313 313 313 311 310 312 312 311 311 314 315 315 317 320 323
298 298 298 299 300 303 303 303 304 307 307 310 312 315 313 309 310 311 311 309 309 307 310 315 314 313 313 314 314 314 314 315 315 315 314 314 313 311 314 315 313 313 315 321 321 319 321
298 298 297 298 299 301 302 302 305 306 307 308 309 315 312 309 311 311 309 309 309 309 312 312 312 313 314 313 315 314 315 315 314 313 316 315 314 313 312 313 315 315 315 318 317 318 318
299 298 297 297 299 300 302 301 305 305 305 306 309 313 310 309 311 310 310 312 307 311 313 314 313 315 315 315 314 315 315 313 310 312 314 314 313 312 311 312 313 315 315 314 318 319 323
298 298 297 298 298 300 301 301 304 305 304 306 307 311 310 309 310 309 311 310 311 313 315 315 317 316 315 315 314 313 314 311 313 312 310 309 310 312 313 313 312 314 313 317 317 319 324
298 298 298 297 298 298 301 300 303 304 305 307 310 311 309 310 309 310 312 309 312 313 314 317 318 318 315 311 312 312 311 311 311 311 310 310 312 313 312 315 315 315 315 316 314 318 326
298 297 298 297 297 298 300 302 302 304 305 306 311 312 310 310 312 311 314 313 312 314 314 316 316 316 315 311 313 311 311 309 310 310 312 311 315 315 314 312 314 313 314 314 318 318 323
298 297 297 296 297 298 300 302 302 304 308 311 313 314 310 310 314 313 313 313 313 316 316 317 318 315 314 314 313 311 310 310 310 311 312 314 317 317 317 316 314 319 315 317 318 322 323
298 297 297 296 297 297 300 301 303 302 304 311 313 316 313 312 313 313 313 314 315 315 315 316 318 316 317 317 312 313 312 312 312 311 315 314 316 317 318 322 318 319 319 317 318 323 322
298 297 297 296 297 297 300 301 303 302 303 311 314 315 313 313 314 314 313 316 316 317 315 316 315 317 318 318 314 314 313 311 314 316 315 314 316 314 315 315 317 317 323 320 323 322 321
298 297 297 296 297 297 300 301 302 301 305 312 315 316 313 312 313 316 314 317 317 318 318 319 318 318 316 319 313 314 313 314 314 315 315 313 315 314 316 321 320 322 323 322 323 320 320
297 297 297 296 296 298 299 300 303 302 303 304 312 311 314 313 314 315 316 316 316 315 316 316 318 317 319 317 316 316 316 314 313 317 313 313 315 318 326 326 326 329 324 324 316 316 317
297 297 297 296 296 298 299 301 303 301 303 305 310 310 315 318 316 316 316 315 315 315 316 316 316 317 316 317 318 318 318 317 313 312 311 313 315 317 324 327 326 319 321 320 322 321 320
297 297 297 297 296 298 299 301 303 301 302 305 308 310 311 317 316 315 315 314 312 314 316 317 316 316 314 317 321 320 320 320 316 314 310 311 316 319 322 321 320 318 315 321 323 323 317
296 297 297 297 296 297 299 300 302 301 303 306 309 312 310 315 316 315 314 313 314 313 315 316 313 310 316 320 322 324 322 318 319 320 314 315 316 321 319 320 325 317 315 312 315 321 313
297 297 296 296 296 297 298 300 301 302 303 305 311 311 311 314 312 312 313 313 312 313 314 313 313 315 315 321 323 323 321 317 319 318 320 319 320 319 318 322 317 315 314 312 322 318 313
296 296 296 295 296 297 298 300 301 302 302 305 308 312 312 313 312 310 309 312 312 312 315 314 316 316 318 322 322 323 320 317 319 316 319 320 323 321 320 322 319 314 313 315 312 311 310
296 296 297 295 296 297 297 299 300 301 302 304 309 312 312 311 312 310 310 310 310 311 313 312 315 316 318 320 320 321 317 315 321 320 316 321 319 323 318 317 314 312 314 312 309 309 308
Wind_Speed
29 29 21 21 21 20 22 20 19 19 17 17 15 14 12 11 9 7 5 4 2 1 2 1 2 3 6 3 6 1 6 7 6 14 17 7 5 3 5 4 4 9 8 10 11 14 15
28 29 31 28 23 22 21 21 21 20 18 17 16 15 14 12 11 9 6 5 4 4 3 2 1 4 2 5 7 10 10 3 5 8 10 11 6 7 5 6 8 5 6 11 11 15 9
27 30 30 33 31 23 23 22 21 21 20 18 18 16 16 13 12 11 7 5 5 5 5 3 2 4 3 11 6 4 3 13 10 9 4 15 18 2 1 4 4 6 9 11 9 5 9
27 28 29 30 33 32 23 24 25 22 22 20 20 18 19 15 14 13 9 7 6 7 7 6 4 4 6 7 6 16 12 4 7 10 7 8 9 9 4 5 6 4 4 8 5 9 5
30 29 29 30 31 31 31 26 25 26 24 23 21 19 19 16 14 14 11 8 5 6 6 5 4 3 7 3 6 14 12 5 3 3 9 10 4 3 2 2 4 4 6 6 5 6 5
31 32 32 31 30 32 31 28 28 28 26 24 23 21 19 17 15 13 11 6 4 7 5 4 2 2 5 4 5 3 12 10 3 3 4 2 2 3 2 5 14 12 7 8 7 3 8
31 33 32 33 31 33 32 33 32 28 28 26 24 22 22 19 17 15 14 7 3 1 6 8 7 3 2 4 5 3 9 6 2 3 4 2 4 11 11 10 5 8 9 12 4 5 10
32 32 32 34 33 34 33 32 34 32 30 27 25 24 23 21 19 18 17 4 4 3 4 14 12 11 9 4 2 3 12 6 7 9 4 3 11 8 7 8 10 11 15 15 10 10 9
33 31 31 34 34 35 35 29 31 32 26 27 26 25 25 22 19 19 19 10 7 2 2 5 6 6 5 10 6 7 11 6 7 16 16 14 6 15 13 11 10 14 17 9 9 13 18
34 34 32 35 35 35 34 32 33 28 20 25 25 26 28 24 14 15 12 15 9 1 3 4 3 3 6 5 5 19 19 7 5 14 16 13 16 15 10 15 10 17 8 13 13 7 6
36 37 34 35 35 33 31 31 31 24 29 16 24 27 32 34 13 13 10 20 13 2 3 4 3 1 3 8 5 3 21 8 14 9 7 8 8 16 21 18 14 11 8 12 11 10 8
35 37 33 35 35 35 32 31 39 27 23 26 15 32 36 23 13 12 14 23 10 3 7 5 4 5 5 6 3 3 9 9 1 15 15 8 1 5 7 11 18 3 10 8 7 4 10
36 37 34 34 34 35 30 33 46 24 24 25 29 39 42 32 11 24 31 10 3 4 2 6 4 5 5 7 7 8 7 8 5 7 8 6 18 5 2 4 5 13 8 4 6 6 8
35 37 34 35 37 38 32 36 42 23 22 22 25 48 39 25 30 35 18 2 6 5 5 4 5 8 7 7 7 10 5 8 14 5 2 7 3 14 11 17 6 14 16 5 6 4 4
35 35 34 34 36 36 37 43 34 20 21 28 25 36 29 22 38 36 8 4 6 6 6 9 7 6 8 6 5 10 9 8 11 13 8 6 6 2 5 5 14 5 11 20 7 5 3
34 33 33 34 36 37 38 45 32 16 21 24 29 22 22 32 42 20 6 7 5 3 6 4 8 8 8 9 9 8 8 7 8 18 11 6 3 6 4 6 12 10 7 6 6 5 5
34 34 34 34 36 39 40 45 31 26 28 14 10 5 21 37 29 8 7 6 4 4 5 6 7 8 7 6 8 7 5 4 12 10 18 4 4 1 1 6 12 9 9 5 7 8 3
32 34 34 34 35 37 38 42 33 25 27 22 7 5 35 37 7 5 5 5 5 4 4 4 5 9 8 9 7 6 8 7 12 10 10 11 4 5 11 4 10 15 13 13 7 10 8
31 31 33 33 35 37 38 41 34 34 33 8 7 4 32 23 6 9 4 8 5 5 7 7 11 10 10 7 4 11 6 9 9 7 11 10 4 2 4 7 11 12 16 15 13 3 9
30 29 32 33 35 36 38 40 36 34 29 6 3 5 4 6 1 9 13 9 7 7 11 6 5 11 6 7 8 3 8 5 9 12 14 15 4 6 8 3 1 10 20 18 16 10 8
29 28 29 32 33 34 39 40 36 35 35 3 2 3 5 9 6 12 10 4 13 7 6 9 4 10 8 4 6 8 7 4 3 11 9 7 6 6 14 17 14 11 18 23 14 6 13
30 27 28 29 30 31 36 37 34 29 26 1 3 4 3 9 11 7 14 10 11 9 6 6 8 8 14 9 6 1 6 4 4 10 10 5 3 4 16 14 17 7 20 21 11 7 6
30 27 28 29 29 30 34 36 31 26 24 5 3 2 4 10 11 8 6 8 8 4 8 10 11 7 10 15 12 4 5 3 1 4 4 7 4 3 4 6 12 7 19 15 4 8 15
31 26 27 27 28 29 32 33 30 27 21 13 11 2 3 5 9 10 9 14 14 13 10 6 12 7 1 4 3 4 4 4 3 8 9 6 3 5 1 0 3 1 17 23 23 22 22
30 28 26 25 26 28 31 32 30 26 25 25 9 2 2 3 5 4 3 1 4 3 10 12 8 7 5 3 3 2 2 3 0 3 6 5 3 4 3 2 3 3 5 8 11 8 5
28 27 26 25 26 27 30 32 30 26 26 23 11 3 3 3 5 4 5 3 3 1 2 3 1 1 6 5 3 4 4 4 3 3 4 5 2 1 4 2 3 2 2 1 2 2 5
28 27 23 24 25 25 27 30 29 26 24 27 4 7 4 3 2 4 3 3 4 2 2 2 2 3 4 5 3 3 3 2 4 6 5 2 1 4 1 2 6 5 2 1 4 5 2
27 26 24 24 24 25 26 29 28 28 25 21 10 8 3 2 1 3 4 4 2 2 2 1 2 1 2 3 2 3 3 5 2 3 5 5 4 3 3 0 5 1 2 1 3 2 2
26 25 23 24 25 25 26 29 29 29 26 23 3 8 6 3 0 1 3 4 4 4 3 2 2 2 3 3 3 2 2 2 3 3 1 3 5 5 7 5 2 1 0 1 1 3 4
Wind_Direction
341 346 321 286 289 285 279 282 283 273 264 256 250 242 240 234 239 242 233 249 227 291 321 194 172 162 171 207 241 184 113 110 151 200 208 196 193 195 205 221 270 245 256 251 251 252 264
333 338 343 336 295 285 280 275 278 272 263 254 251 240 236 235 234 240 228 230 223 225 243 276 209 196 202 232 219 238 243 216 170 174 202 192 214 207 259 230 236 290 281 260 264 261 252
332 328 324 332 334 304 282 276 273 270 262 252 248 243 238 237 230 232 231 227 233 228 232 233 243 227 267 236 213 146 312 258 234 187 195 221 228 283 17 291 309 273 288 288 251 257 260
345 335 329 325 330 330 309 283 269 267 259 252 247 241 233 238 232 224 223 231 239 221 214 212 205 202 245 255 252 264 248 288 216 221 233 246 246 231 222 279 327 330 258 249 232 218 229
343 339 335 329 320 326 322 288 274 265 252 248 242 238 228 232 230 223 219 224 229 208 199 190 167 188 265 284 237 249 236 221 234 223 263 261 246 223 354 230 270 226 264 262 252 209 219
340 337 333 333 329 321 322 325 279 267 256 247 236 231 222 224 221 213 206 191 163 161 170 170 223 229 257 225 213 240 205 209 247 42 337 224 177 172 104 189 232 237 242 233 230 312 213
339 337 334 330 328 326 317 319 304 273 258 248 235 231 217 211 207 199 175 140 73 332 209 200 186 224 281 191 176 198 173 142 111 104 198 297 212 221 224 221 248 292 290 270 14 321 289
337 335 334 329 328 326 322 313 314 306 256 247 236 225 215 203 201 196 189 189 202 138 261 234 244 237 274 111 188 191 156 162 193 223 139 313 243 232 236 230 235 250 264 273 293 273 268
335 328 331 329 326 323 325 310 314 291 254 242 238 219 209 197 192 188 191 205 162 67 267 255 215 215 203 221 222 200 157 171 205 225 219 225 250 228 220 233 233 239 245 265 261 295 280
337 331 328 329 327 324 323 319 314 303 296 244 233 212 198 182 168 189 203 192 174 170 285 233 217 250 183 187 257 207 182 160 200 225 228 241 231 261 236 234 212 247 221 238 252 268 259
338 332 329 327 325 325 318 322 323 295 299 259 232 209 185 179 160 173 189 186 176 110 346 167 162 340 144 179 143 217 184 187 200 197 174 213 209 217 233 234 222 253 225 234 237 240 271
335 333 332 328 329 328 326 324 325 297 303 276 257 198 180 176 157 179 173 166 146 54 253 170 130 171 172 208 207 100 177 211 269 217 224 216 129 214 212 230 227 246 234 263 246 230 240
336 334 328 328 332 329 329 321 323 293 289 278 266 190 180 177 167 156 153 139 115 187 167 175 173 173 204 189 209 191 170 203 199 193 211 199 234 266 205 226 209 209 236 249 209 207 243
332 334 331 330 330 334 331 324 324 299 283 303 304 179 174 169 163 156 149 97 204 217 188 114 147 158 192 177 215 204 209 214 226 192 235 194 246 198 194 216 179 205 203 209 203 202 221
329 333 333 332 331 335 333 327 321 301 280 292 279 159 158 173 164 155 153 207 215 210 153 147 147 185 194 206 226 204 224 225 227 189 196 202 248 209 226 180 189 204 207 220 310 268 244
327 332 333 332 334 337 334 330 323 314 295 291 299 144 162 173 164 151 168 217 232 224 119 152 185 182 195 184 187 193 194 214 214 196 190 214 263 204 170 177 222 197 161 155 204 240 241
327 331 333 334 335 336 335 328 324 320 314 292 254 118 155 169 155 165 197 221 253 214 145 179 189 183 226 171 181 197 234 243 205 196 192 143 202 172 350 182 205 212 223 206 173 233 266
328 330 332 334 334 333 334 330 335 311 300 311 182 165 156 157 157 189 201 186 212 216 195 174 167 205 210 182 191 203 228 233 187 190 181 201 207 223 234 240 248 210 216 205 209 206 247
326 330 330 335 335 333 334 337 342 342 340 204 164 105 158 169 174 181 201 213 253 208 197 200 201 208 206 186 212 202 214 224 209 175 171 166 219 244 237 200 223 216 208 200 226 221 236
326 330 330 334 334 333 337 341 346 344 330 291 143 134 137 194 244 179 199 213 219 209 230 206 239 196 219 221 221 220 236 241 213 213 165 165 203 240 260 341 39 210 200 204 202 235 208
328 329 332 336 336 335 338 343 350 343 333 46 126 123 139 170 196 188 183 230 201 216 210 185 207 235 219 237 196 224 225 238 143 163 162 164 223 218 245 246 217 245 205 189 192 180 200
331 330 331 336 338 334 336 345 351 346 358 14 159 135 159 167 176 172 192 205 219 200 188 173 215 220 215 233 197 276 203 211 188 167 165 172 248 243 283 263 203 207 191 191 181 187 237
334 331 334 337 339 339 339 343 344 348 8 340 330 336 135 153 183 188 207 216 228 188 202 201 216 260 250 224 242 234 239 223 155 173 145 171 188 286 302 119 129 163 172 177 174 228 196
336 333 336 338 337 337 339 341 350 342 339 322 271 127 129 162 167 198 189 205 232 223 217 214 211 210 252 317 117 303 276 324 245 183 182 181 185 233 304 350 58 67 178 181 196 205 216
335 336 337 337 338 337 339 342 345 344 335 318 292 215 108 121 179 168 218 306 230 291 230 227 200 206 178 298 169 168 343 285 259 172 181 167 165 293 20 299 280 96 94 160 194 199 220
335 334 339 337 339 336 337 342 347 344 331 329 288 149 103 119 194 114 166 217 197 201 245 232 321 346 169 190 178 170 192 216 223 167 213 185 170 316 356 38 30 262 340 88 150 290 172
333 333 335 336 336 334 336 342 346 340 329 341 237 132 98 139 213 139 184 170 156 144 239 273 252 196 207 174 160 154 195 195 187 183 165 130 171 207 348 317 292 258 292 26 120 237 157
330 335 332 334 334 333 335 338 341 344 342 346 290 175 114 133 181 183 153 144 122 166 189 177 241 194 152 155 133 180 187 208 176 230 178 153 159 178 154 173 286 247 358 176 210 46 113
327 330 329 331 332 334 334 337 343 345 341 342 290 182 172 79 48 304 245 246 214 183 150 189 299 214 207 155 184 138 160 148 186 231 247 185 182 170 181 212 242 5 160 31 140 123 114